Find Starlink 38377

NORAD ID: 100521 Int'l Des: 2026-197 Owner: SPXS Country: US Constellation: starlink operational

Current View

Loading 3D Globe...

About Starlink 38377

Starlink 38377 (NORAD 100521) is a starlink constellation satellite launched Aug 26, 2026 by SPXS of US. with a mass of 575.00 kg.

Upcoming Passes

Passes for default location (London). Set your location on the main map for personalized predictions.

Altitude History

Loading altitude history...

Two-Line Element Set

1 A0521U 26197V 26263.95460866 .00273279 00000-0 12853-2 0 9997
2 A0521 69.9990 120.2474 0003508 274.9806 85.0995 15.82238373 4062
Epoch: Sep 20, 2026 • Age: 5 hours

Current Status

Altitude 336.5 km
Apogee / Perigee N/A
Velocity 7.71 km/s
Sub-Earth Point -38.60°S, 109.6°W
Launch Date Aug 26, 2026
Age 25 days
Type internet

Technical Details

Classification Payload
Mass 575.00 kg
Dry Mass 530.00 kg
Length 0.30 m
Span 29.00 m
Shape ? Box + pan
Manufacturer SPXS
Bus Type Starlink V2MO
Phase Status In Orbit
Owner/State SPXS/US

Most Searched